Simultaneous Nadir Overpasses (SNOs) Predictions

Prediction of SNOs between GOES-17 and AQUA Satellite Orbit:

Table of predicted SNOs for the next 14.0 days since TLE Epoch: 7/31/2020
Index Date Time (GOES-17) GOES-17 Lat,Lon AQUA Lat,Lon Distance(km) Time Diff (sec)
1 08/02/2020 10:30:46 0.02,-137.20 -0.62,-134.19 342.84 80
2 08/02/2020 22:52:10 -0.01,-137.20 -0.49,-139.38 248.39 80
3 08/04/2020 22:42:39 -0.00,-137.19 0.16,-136.42 87.58 80
4 08/05/2020 11:01:15 0.00,-137.20 0.92,-141.58 498.04 80
5 08/06/2020 22:30:28 -0.01,-137.19 0.81,-133.47 423.61 80
6 08/07/2020 10:49:03 0.01,-137.20 0.32,-138.62 162.10 80
7 08/09/2020 10:39:32 0.01,-137.19 -0.33,-135.67 173.41 80
8 08/09/2020 22:58:16 -0.01,-137.18 -0.78,-140.86 418.16 80
9 08/11/2020 22:46:04 -0.00,-137.16 -0.18,-137.89 83.68 80
10 08/13/2020 22:36:33 0.01,-137.14 0.48,-134.94 249.84 80
11 08/14/2020 10:55:07 -0.01,-137.14 0.65,-140.09 336.38 80
